GFSGL_925_thetae_132.txt.gz
Theta_e
346 345 346 344 345 346 347 347 346 347 348 348 346 348 349 348 350 350 349 350 349 350 350 351 349 350 350 349 349 349 350 350 346 348 347 348 349 344 342 345 345 345 346
345 345 344 347 346 346 347 347 346 346 346 348 347 348 349 347 349 349 350 351 350 350 349 350 350 348 349 348 349 348 349 349 349 349 349 350 347 343 346 347 347 345 345
346 345 345 346 347 346 348 348 349 349 348 349 349 349 350 349 349 350 350 349 350 349 350 349 349 349 350 349 349 350 349 349 349 350 348 345 344 348 348 348 346 343 349
347 346 346 346 347 347 349 349 350 349 349 348 349 348 349 349 349 350 350 350 351 350 349 350 350 350 350 350 349 349 350 349 349 348 347 345 348 348 349 349 345 344 349
349 348 347 347 347 350 350 349 349 349 349 349 349 349 349 350 350 350 350 351 351 351 351 350 349 349 350 350 350 350 350 350 349 349 346 346 347 348 349 347 345 339 347
350 349 347 347 349 350 349 350 351 351 349 350 350 349 349 349 350 350 350 350 351 350 349 348 349 349 348 350 350 349 349 350 349 348 347 347 346 349 345 346 343 341 344
349 349 348 349 349 349 349 350 349 347 346 346 348 348 347 347 348 347 345 346 346 346 344 347 348 347 347 345 346 347 348 349 348 347 348 347 347 346 340 343 340 340 343
346 346 345 346 346 346 345 345 345 345 345 345 346 347 347 347 345 345 345 344 345 344 340 339 347 347 345 345 346 346 346 345 344 343 341 334 334 336 338 343 338 337 342
344 344 343 343 344 343 342 343 343 342 344 344 343 342 341 340 340 340 343 344 344 345 346 347 345 346 340 341 343 344 336 333 332 333 336 337 338 339 338 335 330 330 336
342 343 343 342 343 343 342 340 340 342 343 342 339 337 333 334 338 339 340 342 342 342 341 339 339 335 331 334 338 341 330 331 331 327 325 324 325 324 325 325 324 326 327
342 341 341 341 342 343 342 342 343 342 341 339 336 332 332 332 334 338 341 342 341 332 326 323 323 324 327 325 324 325 331 328 325 325 322 321 321 321 321 321 320 321 319
340 340 337 341 341 341 340 339 339 338 337 331 325 322 324 326 330 335 338 337 328 324 319 321 323 323 324 325 324 328 330 325 323 322 321 318 315 314 315 316 315 314 310
340 338 339 339 338 338 337 337 335 333 330 324 321 319 317 318 323 330 327 326 324 323 321 323 326 323 324 324 326 324 323 323 322 319 315 311 309 307 306 308 314 308 303
335 332 331 332 334 334 334 332 330 327 323 320 319 319 319 320 320 322 325 325 326 325 326 322 321 322 323 323 322 322 320 317 316 313 310 307 305 304 303 301 301 305 300
325 326 325 324 327 325 325 322 323 323 324 322 320 320 314 309 309 311 313 313 315 319 318 318 318 317 314 315 313 312 311 311 310 307 306 304 301 300 299 299 299 299 300
324 323 322 323 323 323 324 321 323 324 324 325 323 319 314 308 304 303 303 306 314 317 318 317 313 311 310 310 309 307 306 305 304 303 302 300 299 298 298 298 298 298 299
325 321 318 318 319 319 317 318 318 317 318 320 323 323 322 320 321 316 303 306 312 313 313 312 311 310 308 307 306 305 303 302 301 300 298 297 297 297 297 297 297 297 298
318 319 319 318 315 313 312 311 308 308 310 310 316 318 317 316 315 316 317 313 311 313 311 309 307 306 305 304 303 302 301 300 299 297 296 296 296 296 296 296 296 297 297
311 315 310 310 313 317 314 312 308 306 304 302 301 300 299 300 302 303 304 307 310 309 309 307 306 305 304 302 301 300 299 298 296 295 294 294 294 294 294 294 295 295 296
313 309 309 309 309 315 317 314 311 308 307 305 303 302 301 305 307 307 305 307 308 307 307 306 305 304 302 301 299 298 297 296 294 294 293 293 293 293 293 293 294 295 295
310 309 307 307 307 307 308 310 312 312 310 308 306 303 302 306 307 307 307 307 307 306 305 304 303 301 300 299 298 297 296 295 293 293 293 293 293 292 292 292 293 293 294
312 311 311 311 308 306 306 306 306 306 307 308 306 303 303 306 306 306 306 306 305 305 304 303 301 300 299 298 297 296 295 294 293 293 293 293 292 292 291 291 292 292 293
314 313 311 310 309 307 305 305 305 305 306 307 308 304 303 305 305 305 305 305 304 303 302 301 299 298 297 296 296 295 294 293 294 294 294 293 292 291 291 291 292 293 293
318 314 310 308 308 308 308 306 304 305 305 305 307 308 305 305 306 305 305 304 303 302 301 300 299 298 297 296 295 294 294 294 294 294 294 293 292 292 292 292 293 293 293
318 316 314 312 310 309 308 308 306 304 304 304 305 305 307 305 305 304 304 304 303 302 300 300 299 298 297 296 295 294 294 294 294 294 294 294 294 293 293 294 294 295 295
317 316 315 314 313 313 311 310 309 308 306 304 305 305 305 305 303 304 304 303 303 302 300 299 298 298 297 296 295 294 294 294 294 294 295 295 294 294 295 295 296 295 294

GFSGL_925_thetae_135.txt.gz
Theta_e
348 348 347 346 346 345 347 345 346 347 345 346 347 348 350 349 347 349 350 353 353 354 353 354 355 353 354 353 353 353 353 352 350 348 351 351 354 351 351 353 351 350 351
349 349 349 347 346 347 348 346 347 347 347 347 348 346 348 350 351 347 351 352 353 353 353 353 353 352 353 350 352 354 352 353 352 352 352 352 353 350 354 354 351 350 352
349 349 349 349 350 349 349 349 348 346 346 346 347 349 348 350 349 347 348 352 354 354 353 352 352 353 353 351 350 352 352 353 353 353 352 352 349 351 351 353 351 354 348
350 350 350 350 350 350 347 345 348 349 349 349 349 348 348 349 349 351 350 349 351 352 352 351 352 353 352 352 351 353 350 351 353 353 351 351 350 352 352 351 349 349 343
351 351 351 351 350 348 346 347 349 349 349 349 348 347 348 350 351 352 350 349 350 352 351 351 352 352 349 349 346 346 348 347 348 351 351 351 351 350 352 351 348 346 345
348 351 352 352 351 350 348 349 350 349 349 349 349 348 348 349 348 349 349 349 349 349 349 349 348 349 349 348 347 347 349 347 349 351 352 352 352 351 351 349 347 345 346
350 351 351 353 352 352 353 352 350 351 350 349 348 348 349 348 348 347 347 348 349 351 350 350 347 347 348 348 347 346 345 347 348 348 350 352 352 352 346 347 347 344 343
352 351 351 349 350 350 350 351 350 349 348 347 345 345 345 345 346 345 344 345 345 344 346 345 344 347 344 346 344 345 343 341 342 344 345 343 339 337 338 346 346 344 338
346 345 346 344 344 344 345 345 345 345 344 344 343 343 343 342 341 341 340 341 342 342 343 343 342 345 344 343 343 344 338 333 335 333 334 337 339 341 342 342 337 338 339
344 344 343 342 343 343 343 342 343 343 342 342 342 341 339 338 335 336 338 339 340 341 342 342 340 339 339 340 343 339 337 333 327 326 325 324 325 324 325 327 331 333 332
336 341 340 337 342 342 343 342 341 341 341 340 338 337 335 336 336 337 338 340 340 339 335 329 327 327 328 325 329 335 336 331 326 325 323 322 321 321 320 320 320 322 325
341 340 339 340 340 341 341 339 338 338 337 333 326 323 324 327 330 334 337 339 337 331 324 323 324 324 324 324 325 327 327 326 322 321 320 318 317 316 316 314 314 312 310
339 337 338 339 338 338 338 338 336 334 332 326 322 320 318 320 326 327 325 323 323 323 322 322 323 324 325 325 325 326 323 321 321 320 317 313 310 308 309 311 310 306 303
334 332 332 334 334 333 333 331 330 327 324 322 322 320 317 316 319 322 323 323 323 323 323 324 324 324 324 324 324 322 320 320 319 315 311 309 307 306 305 305 305 308 306
328 328 327 327 327 325 327 325 325 325 323 321 321 319 312 308 310 313 314 316 320 322 323 321 321 320 320 319 318 316 314 311 310 308 306 305 305 304 304 304 304 304 305
323 322 323 323 322 322 323 322 323 324 324 323 322 319 311 309 308 308 305 306 315 318 317 316 314 312 313 311 311 311 309 308 307 307 305 304 304 303 303 302 303 302 303
323 321 320 319 317 318 319 318 316 317 320 322 321 318 320 321 321 319 311 307 309 314 316 314 314 311 308 308 308 308 307 305 304 304 303 302 302 301 302 301 301 301 302
320 318 318 316 315 315 313 310 310 312 312 314 319 321 321 321 321 318 316 311 311 313 312 312 310 309 309 307 305 306 303 303 302 301 301 301 301 301 301 301 301 302 302
316 313 311 313 317 316 314 312 308 307 306 303 302 302 301 300 301 302 304 309 311 312 310 311 308 307 305 305 304 303 301 301 300 299 299 299 299 300 300 300 299 298 300
311 310 309 309 314 317 317 315 310 310 308 307 306 305 303 304 308 308 306 308 310 311 310 309 307 306 304 304 302 300 299 297 297 297 297 297 296 297 298 298 299 299 300
311 309 308 308 309 309 311 314 314 314 312 310 308 306 303 308 309 310 309 309 310 309 308 307 306 304 303 302 301 300 299 297 296 295 295 294 295 295 296 296 296 297 298
314 313 312 312 311 309 309 309 309 309 310 310 310 307 303 306 309 309 309 309 308 308 307 306 304 303 302 301 300 299 298 296 296 296 295 294 295 295 295 295 296 297 297
316 315 314 312 311 309 308 308 308 308 308 309 309 308 305 307 308 308 308 308 307 306 305 304 303 302 301 300 299 299 298 297 296 296 296 295 295 295 295 296 297 297 298
318 318 316 313 311 310 309 309 309 307 307 308 309 308 308 308 308 308 308 307 306 305 304 303 302 301 300 299 298 297 296 295 295 296 296 297 296 295 296 297 297 297 298
320 319 318 316 315 314 312 309 309 309 307 307 307 308 308 308 308 308 307 306 305 304 303 302 301 300 299 299 298 296 295 294 296 295 296 296 296 296 297 297 298 298 299
316 316 316 317 316 316 315 314 313 310 308 306 305 306 306 307 307 307 306 305 304 303 303 302 301 300 299 298 297 296 294 295 295 295 296 296 297 297 298 298 298 298 298

GFSGL_925_thetae_138.txt.gz
Theta_e
352 349 349 350 350 351 350 351 351 351 349 352 352 351 351 352 353 354 352 353 354 353 352 353 354 354 351 349 349 349 348 347 347 345 345 349 352 354 352 353 351 349 352
351 351 351 351 351 349 349 350 351 353 354 355 352 351 351 351 352 352 352 350 353 353 353 352 353 351 353 353 350 350 350 352 350 349 349 349 353 352 353 355 352 349 351
351 351 351 352 351 349 349 351 351 353 354 354 354 353 353 351 351 352 352 352 352 352 352 353 353 353 353 352 353 351 350 350 351 351 350 349 350 351 350 353 352 353 348
352 351 351 352 352 351 351 352 353 354 354 353 354 354 353 352 352 353 353 353 353 353 352 352 351 351 352 353 352 352 351 351 350 353 350 348 349 351 351 350 351 350 344
353 353 353 353 353 353 352 353 353 353 354 352 352 351 351 352 351 351 354 354 353 353 353 352 351 351 352 351 352 351 351 351 350 350 349 348 350 351 350 350 351 349 343
354 354 354 355 355 353 353 354 353 354 355 354 353 351 350 351 349 349 349 348 350 351 352 352 352 351 349 347 349 348 349 351 352 350 349 349 351 351 352 352 350 348 349
355 355 355 356 356 355 354 353 354 354 354 354 353 352 352 350 346 348 347 347 351 349 352 352 352 350 349 352 350 347 346 346 346 348 351 352 353 352 352 350 351 349 346
353 353 354 354 355 354 354 354 354 354 354 354 353 353 352 347 346 346 345 345 350 352 351 351 351 350 352 349 349 352 349 343 344 347 351 350 345 346 346 347 350 347 341
353 353 354 354 354 354 354 354 352 352 351 352 351 350 350 345 341 343 341 345 348 349 348 343 342 341 345 344 346 351 345 335 337 334 334 335 337 340 342 347 345 341 342
351 347 347 347 345 347 346 346 346 345 343 342 342 341 340 337 337 336 337 342 346 345 342 341 340 341 342 342 340 343 341 337 329 329 330 329 330 326 329 333 335 336 335
346 346 343 342 342 343 344 343 343 343 342 340 338 337 337 336 335 336 337 338 338 339 338 333 328 330 329 331 338 345 343 341 334 334 331 329 329 327 325 324 322 323 327
345 345 345 342 341 341 340 339 337 338 337 333 331 326 324 328 330 332 335 338 337 331 326 323 323 324 325 324 325 330 333 331 329 328 326 323 321 320 320 316 315 314 313
341 338 339 339 338 338 337 335 333 334 331 327 327 325 322 325 327 327 326 326 325 326 324 323 324 324 324 325 325 323 323 322 321 320 317 314 312 311 311 314 313 309 310
333 332 330 334 334 334 333 330 330 328 327 325 324 322 321 320 321 322 324 324 324 323 323 323 324 325 324 324 324 322 320 319 318 314 311 309 307 308 307 308 309 312 310
327 326 328 328 329 329 328 324 324 326 324 325 323 322 319 317 318 318 319 320 322 323 323 322 321 320 320 320 320 319 318 316 315 311 309 308 307 308 307 307 308 308 309
326 325 326 325 325 325 324 322 324 324 324 323 322 318 309 306 305 306 306 308 315 318 321 322 319 317 315 316 317 317 314 314 314 313 312 310 309 308 307 307 307 308 308
323 322 322 325 326 327 325 324 322 321 324 322 316 311 312 319 321 317 308 308 308 314 317 316 316 316 312 312 312 313 311 311 310 310 309 308 307 306 307 307 307 307 307
320 319 320 319 319 318 317 317 317 318 318 320 322 321 321 321 320 319 317 315 312 312 314 314 313 312 311 310 309 308 306 306 306 305 306 306 306 306 306 306 306 307 307
319 317 319 320 319 317 316 315 313 313 311 310 309 308 309 309 306 305 308 312 315 316 315 316 315 315 313 311 309 307 306 306 305 304 304 304 304 305 305 304 303 300 302
314 313 314 315 317 318 319 317 315 315 314 313 312 311 308 305 310 311 308 309 310 312 313 314 313 312 311 309 308 307 305 303 302 301 301 301 300 301 301 301 302 302 302
314 312 311 314 314 315 316 317 316 316 315 314 313 312 309 311 312 312 312 311 312 312 313 313 311 310 309 308 307 305 304 303 301 301 300 300 300 300 300 300 300 300 301
317 316 315 315 314 314 313 313 313 313 313 314 314 312 308 306 311 312 312 312 313 313 313 312 311 310 308 307 306 305 303 302 301 300 300 300 300 300 300 300 300 301 301
321 320 320 318 315 313 313 313 313 312 312 312 312 312 310 308 311 312 311 311 311 311 310 309 309 308 307 305 304 303 302 301 301 300 301 300 300 300 300 301 301 301 302
321 321 321 321 319 318 316 315 313 312 310 311 312 312 311 311 311 311 311 311 310 309 309 308 307 306 305 304 303 302 301 300 300 300 300 301 301 299 301 301 301 302 302
321 321 321 320 319 318 318 317 316 315 314 313 312 312 312 311 311 311 311 311 310 309 308 307 306 305 304 303 302 301 299 297 300 299 300 301 301 301 301 302 302 302 302
316 315 314 314 315 315 316 316 317 317 317 315 311 310 310 310 309 310 310 310 310 309 308 306 305 304 302 302 301 300 297 295 296 298 300 301 301 301 301 302 301 302 302

GFSGL_925_thetae_141.txt.gz
Theta_e
352 351 351 351 351 351 350 351 351 352 354 352 354 353 353 353 354 354 354 354 355 354 353 352 352 353 352 348 350 348 346 345 347 346 346 350 353 352 353 352 352 353 351
351 351 351 352 352 351 351 351 352 352 354 354 353 355 352 353 354 355 354 351 352 352 352 353 353 350 352 354 351 347 346 348 348 351 346 346 350 350 353 353 351 352 348
352 352 352 353 353 352 351 352 351 352 354 355 355 355 353 354 354 354 355 355 353 351 352 352 352 352 351 351 354 354 351 353 352 352 350 347 349 347 351 349 354 352 348
352 352 353 353 353 353 352 352 353 354 354 355 355 356 355 355 353 353 354 354 354 352 352 351 350 351 350 351 354 352 353 352 349 351 351 349 349 350 350 349 349 351 344
353 353 353 354 354 355 354 353 355 355 355 356 355 356 355 353 351 353 354 353 355 355 355 355 353 350 351 352 352 351 352 350 350 351 352 351 348 348 351 353 351 349 348
354 355 355 356 356 354 354 355 356 356 355 357 355 355 355 353 350 350 349 353 350 350 350 352 353 351 352 351 347 347 349 351 352 351 350 350 354 353 352 350 351 350 350
355 356 357 357 358 356 356 355 355 355 355 356 356 355 354 353 351 347 346 349 353 352 353 348 345 348 351 352 352 350 348 348 347 348 351 351 353 355 354 354 351 353 350
359 357 357 358 357 357 357 355 355 354 354 354 355 354 352 352 350 347 347 346 350 353 354 353 351 349 350 352 351 352 352 351 346 346 351 352 349 349 351 350 352 352 347
355 355 355 354 353 353 353 355 354 354 355 355 354 351 350 349 344 342 343 346 347 351 352 351 345 347 347 343 344 348 351 346 339 338 339 336 336 339 338 346 349 347 346
354 355 356 356 356 354 352 353 352 353 350 347 347 345 344 341 340 339 339 344 346 350 348 346 340 337 341 341 342 346 348 346 333 332 333 334 335 330 331 333 333 338 338
350 350 350 349 349 348 349 348 348 346 343 341 340 339 338 337 337 337 337 338 340 341 339 337 335 331 330 331 334 338 343 344 335 337 336 334 333 329 326 324 323 324 327
347 346 347 346 345 342 341 341 341 341 333 331 331 331 331 331 332 333 335 337 337 337 334 328 325 325 325 325 326 333 337 337 334 332 327 325 323 322 318 314 312 312 312
345 344 339 339 339 338 337 333 332 332 331 329 328 325 327 327 328 330 330 328 329 328 325 324 324 324 324 325 326 326 328 328 326 324 321 318 313 311 312 312 311 312 312
338 335 332 336 332 331 332 331 330 329 327 326 325 325 324 325 324 326 326 326 324 323 323 323 324 325 325 325 324 324 322 321 321 320 317 316 315 318 315 308 309 311 314
328 328 328 328 330 329 329 324 326 328 328 330 329 324 321 320 320 321 323 325 326 326 325 324 322 323 324 322 320 320 320 320 319 316 313 311 309 309 309 309 310 311 312
329 329 326 326 327 324 323 322 325 325 324 323 322 318 314 313 309 308 309 313 317 319 323 325 324 321 319 319 319 320 318 318 318 317 316 314 314 312 310 310 310 311 311
329 330 329 330 328 328 329 329 326 323 322 320 315 310 309 312 318 317 312 310 309 314 318 320 320 319 317 315 316 316 315 315 313 313 313 311 309 308 307 309 310 310 311
326 324 323 322 322 322 321 321 321 321 323 323 320 318 319 321 321 320 317 315 316 315 317 319 319 317 316 315 314 313 312 311 310 308 308 308 308 308 308 309 309 309 309
323 322 321 321 319 318 317 316 317 316 316 317 316 316 319 318 316 310 307 314 318 317 317 317 317 317 317 315 314 313 311 310 309 308 308 307 307 307 308 307 306 303 303
317 317 318 319 318 320 320 318 318 318 317 316 315 315 310 305 311 314 312 311 311 312 314 316 316 316 315 314 313 311 309 306 307 305 305 304 303 304 304 303 303 304 304
316 314 315 317 318 319 320 320 319 318 318 317 316 315 313 313 314 315 315 315 314 314 315 315 315 315 314 313 311 310 308 307 305 304 304 303 303 303 303 303 303 303 304
319 318 318 318 317 316 316 316 316 316 316 316 316 314 313 311 310 313 314 314 314 315 315 315 315 314 313 312 311 310 308 307 305 304 303 303 303 303 303 303 303 304 304
321 321 321 321 319 317 317 316 317 316 316 316 316 315 313 313 312 313 314 314 314 313 313 313 313 312 311 310 308 307 307 305 304 304 304 303 303 303 303 304 304 304 304
321 321 321 320 320 320 319 319 318 317 316 315 314 314 315 315 314 314 314 314 314 313 312 311 310 310 309 308 307 306 305 304 303 303 303 303 304 303 303 304 304 305 305
322 322 320 320 320 319 319 318 318 318 317 315 315 315 314 314 314 314 314 314 313 312 312 311 310 308 308 307 305 304 302 301 302 302 303 303 304 304 304 304 304 304 304
319 316 314 313 312 312 312 312 313 313 314 315 315 317 315 314 313 313 313 312 312 312 312 311 309 308 307 306 304 303 301 299 296 298 302 303 303 303 303 304 304 304 303

GFSGL_925_thetae_144.txt.gz
Theta_e
354 353 352 352 351 352 353 351 353 353 353 353 353 354 353 353 354 354 354 350 350 353 353 350 351 351 352 352 350 348 348 347 353 351 348 348 353 349 348 345 352 353 348
353 354 353 352 353 352 351 352 351 350 352 353 352 354 353 353 353 352 351 353 354 353 350 353 352 353 352 350 351 354 354 352 351 350 350 349 349 353 350 349 354 351 347
354 355 354 355 353 354 353 351 354 352 352 354 355 354 355 353 352 353 353 351 353 354 353 353 352 349 352 350 349 352 351 351 352 348 350 353 352 348 350 353 352 351 345
354 355 354 353 354 354 353 353 352 352 352 353 353 353 356 354 354 354 352 353 352 353 354 353 351 352 349 348 351 351 351 352 350 351 350 349 349 350 346 350 350 345 340
355 355 355 354 354 353 353 353 353 353 353 353 354 354 354 354 355 353 352 353 353 353 353 353 355 351 351 351 352 352 350 350 351 348 348 349 350 349 350 351 350 350 349
356 357 357 354 354 354 353 352 352 353 354 354 353 354 354 354 353 349 351 351 350 350 349 349 349 351 351 350 350 350 347 347 349 349 350 349 347 347 349 347 346 349 349
357 357 357 357 356 356 356 356 356 355 355 354 355 354 354 354 353 350 349 347 351 353 352 352 352 348 346 349 350 346 343 348 347 347 348 347 349 353 347 347 349 350 350
356 356 356 357 358 356 356 357 353 355 355 354 354 354 353 352 352 351 348 346 347 349 351 352 353 353 351 348 347 348 349 350 348 345 345 348 345 341 341 348 348 347 347
356 356 356 357 357 356 358 358 355 353 354 353 353 353 352 348 347 343 344 345 347 348 351 350 348 346 347 346 343 344 344 349 344 338 337 334 330 332 338 340 337 341 343
356 356 355 354 355 356 353 353 353 353 352 348 344 343 344 343 343 343 342 343 345 348 346 342 341 337 337 339 340 341 344 345 339 336 336 336 334 331 330 329 327 329 330
350 349 350 351 352 350 351 350 349 347 344 341 339 337 339 338 339 339 338 339 341 341 340 337 336 336 338 337 336 336 339 341 337 335 337 331 327 326 319 315 312 312 320
344 341 346 347 345 345 344 342 341 342 340 335 331 329 333 336 337 336 336 337 338 338 336 332 328 326 326 325 325 330 338 338 334 335 329 325 325 325 322 316 313 312 312
345 343 343 341 341 338 336 334 333 333 332 328 328 330 327 329 330 330 332 333 334 332 330 326 325 325 324 324 325 326 328 331 331 329 326 323 323 324 315 316 318 318 313
337 335 337 337 335 335 334 332 331 330 329 327 326 326 328 327 326 327 326 326 326 326 324 324 325 325 325 325 324 324 324 324 325 324 323 321 318 318 315 311 309 309 312
334 333 332 329 330 331 331 330 328 330 331 331 330 327 326 324 322 323 325 327 328 326 325 325 324 324 324 323 322 321 321 322 321 319 317 314 311 311 311 310 310 311 311
329 329 330 329 328 327 327 326 326 327 327 327 324 323 322 320 319 314 314 317 320 322 325 327 325 322 322 321 320 320 319 319 318 317 317 316 315 314 311 310 310 311 312
332 331 331 330 328 328 327 325 322 322 321 321 318 312 308 309 313 313 312 310 310 314 320 321 322 320 320 318 318 317 316 315 314 314 313 311 309 308 307 309 309 310 312
332 332 333 332 332 331 329 328 325 324 323 318 313 314 317 320 320 320 319 316 317 317 317 320 320 319 318 318 316 315 314 312 311 310 309 309 309 309 309 310 309 309 309
324 324 323 321 319 319 318 318 318 318 322 323 318 319 321 320 319 314 307 309 317 317 317 317 317 318 317 316 315 314 312 311 310 309 308 308 308 307 308 307 306 305 304
321 320 321 320 319 321 320 319 320 319 318 317 317 314 310 307 310 314 313 312 313 313 314 316 317 317 317 316 314 313 312 308 308 307 307 306 305 304 304 304 304 304 305
317 317 319 321 322 321 321 321 320 319 319 318 318 316 315 315 314 314 317 317 316 316 316 316 317 316 316 315 314 312 310 309 307 305 305 304 303 304 304 304 304 304 304
318 317 318 318 318 317 318 318 317 317 317 317 317 316 315 314 313 312 313 315 315 315 315 316 316 315 315 314 313 312 311 309 307 306 305 304 304 304 304 304 304 304 305
321 320 320 320 319 319 318 318 318 318 317 317 317 316 314 314 315 313 313 315 315 315 314 314 315 314 313 312 311 310 309 308 306 305 305 305 304 304 304 304 305 305 305
322 321 322 322 322 321 320 320 319 319 318 318 317 316 315 315 315 315 315 315 315 315 314 313 312 312 311 310 309 308 307 306 305 304 304 304 304 304 303 305 305 305 305
322 322 322 321 320 320 320 319 318 317 317 317 317 317 317 316 315 315 315 314 315 314 314 313 312 311 310 309 308 306 304 304 303 303 303 304 305 304 305 304 305 304 304
321 319 316 314 312 311 311 311 311 311 311 311 311 312 314 316 316 314 314 314 313 313 313 312 312 311 309 308 307 305 304 302 300 298 303 304 304 304 304 305 304 304 304

GFSGL_925_thetae_147.txt.gz
Theta_e
351 353 350 349 349 347 348 349 350 352 350 347 352 351 351 348 349 352 353 351 351 349 351 351 352 352 350 348 348 351 352 351 349 349 349 350 351 350 351 352 353 351 344
349 350 350 347 352 349 349 349 350 352 352 351 351 352 351 353 353 353 352 350 352 353 353 352 352 351 353 351 349 350 352 351 349 350 344 346 351 353 351 351 352 349 345
351 354 352 351 350 350 348 351 350 349 349 350 353 352 351 350 352 353 351 352 350 352 354 352 352 353 352 351 349 350 350 350 349 349 349 350 349 349 348 349 351 347 342
355 355 353 354 351 353 353 351 349 354 353 353 354 354 352 353 354 353 351 353 351 351 351 354 352 351 351 351 350 350 350 351 350 351 349 347 349 349 349 349 346 344 341
354 354 355 353 354 352 353 353 352 352 352 351 351 352 352 353 353 355 354 353 354 352 352 350 351 349 351 350 349 350 352 350 348 347 347 346 349 346 347 347 342 348 346
354 355 354 354 353 353 352 353 353 353 353 353 353 353 353 353 354 353 351 353 352 350 349 348 347 348 347 347 350 350 348 347 347 348 349 349 347 346 346 347 347 345 347
356 354 355 354 353 353 353 352 352 352 352 354 353 353 353 354 354 353 351 348 349 351 351 351 353 353 350 346 346 349 344 347 348 346 345 347 346 345 344 346 344 344 345
355 355 355 355 352 353 354 354 354 354 354 353 352 353 353 353 352 351 350 346 345 348 351 351 352 353 351 348 347 347 347 348 347 346 340 337 336 336 338 338 341 345 344
353 356 355 355 354 354 352 353 353 354 353 353 353 351 351 347 348 347 344 345 347 350 349 349 347 343 341 341 342 341 344 345 345 337 331 330 331 332 334 338 338 337 342
355 354 354 355 354 354 354 354 353 352 350 347 345 345 342 342 344 342 341 344 346 346 345 343 342 340 337 337 338 338 339 342 338 332 331 331 329 326 325 322 322 327 330
346 353 352 351 351 351 351 352 347 345 344 342 340 337 338 337 338 339 339 340 342 341 340 337 334 332 329 329 333 335 337 340 336 335 335 328 325 323 321 320 317 314 315
340 342 348 348 347 346 345 343 342 341 339 336 334 332 333 336 337 337 337 337 337 337 334 331 328 327 328 327 327 329 334 336 334 331 326 324 325 325 322 322 320 320 319
340 341 342 341 340 339 338 335 333 333 330 327 328 328 326 328 332 333 333 333 332 332 329 326 326 325 325 325 325 326 327 328 329 330 330 329 327 320 316 317 316 313 312
341 341 340 338 335 334 333 332 331 330 329 330 329 328 328 327 327 328 328 327 326 327 326 325 326 325 325 324 323 323 323 324 324 323 321 319 317 315 310 308 309 309 311
335 334 334 334 333 333 332 331 331 331 331 331 329 328 326 324 322 326 327 327 328 325 325 325 325 325 324 322 321 320 319 319 319 317 315 313 312 312 311 310 311 311 312
333 331 330 330 329 328 327 326 329 330 329 329 327 326 324 322 322 318 319 321 321 324 326 326 323 322 322 320 319 319 319 318 316 317 316 316 314 314 312 311 310 311 312
332 331 330 329 328 329 328 328 326 324 325 324 320 313 312 310 312 312 312 311 312 316 319 324 322 320 320 318 317 317 316 314 313 313 312 311 309 308 307 310 310 311 312
332 332 331 330 330 328 327 325 325 323 319 315 312 313 316 319 320 319 320 318 317 317 317 320 320 320 318 318 316 315 313 312 310 309 309 309 308 309 310 309 308 309 308
332 332 331 331 330 329 330 324 324 324 321 318 318 319 320 320 318 315 309 307 315 317 316 318 317 318 317 316 315 313 312 311 310 309 308 307 307 307 307 306 306 305 304
320 323 320 318 318 318 318 320 319 323 322 318 315 312 311 310 312 313 312 312 313 313 313 317 318 319 318 316 315 314 312 310 307 307 306 306 305 305 304 303 303 303 304
319 320 320 320 321 319 321 321 320 319 318 319 318 316 315 314 314 313 314 316 315 316 316 316 317 316 316 315 314 313 312 310 308 307 305 304 304 303 304 304 303 304 304
317 318 318 318 317 317 317 317 317 317 317 318 318 315 314 314 314 314 312 315 316 315 315 316 316 316 315 314 314 312 312 310 309 306 305 304 304 304 304 303 304 304 304
320 318 319 318 318 318 318 317 317 317 317 317 317 315 314 314 314 314 313 313 315 315 315 314 315 315 314 313 311 310 309 309 307 306 305 304 304 304 304 304 304 304 304
322 322 319 319 320 320 321 320 319 318 317 318 318 317 316 316 316 315 315 315 316 315 314 314 314 313 312 311 310 309 308 306 305 305 304 304 304 304 303 304 305 305 305
322 321 321 322 319 315 314 311 311 311 311 311 311 311 311 312 312 316 315 314 314 315 314 314 313 312 311 310 309 307 306 305 304 303 303 304 304 304 304 305 305 304 304
320 315 312 311 311 311 311 310 310 309 309 310 310 311 312 313 312 311 312 313 314 313 314 313 313 311 310 309 309 307 305 304 303 301 302 303 303 303 304 304 304 304 304